User: anonymous   Login
Location: Unspecified
(0.0000°N, 0.0000°E)
Time: 06:16:58
(UTC+00:00)
Language:

FORTE - Orbit

View from above orbital plane
View from above orbital plane
View from above satellite
View from above satellite

Ground track
Ground track

The orbit data is extracted from the following two-line orbital elements,

1 24920U 97047A   17119.89168677 +.00000033 +00000-0 +37494-4 0  9992
2 24920 069.9543 332.4578 0021136 142.3287 217.9319 14.26236040022955
Epoch (UTC): 29 April 2017 21:24:01
Eccentricity: 0.0021136
inclination: 69.9543°
perigee height: 789 km
apogee height: 819 km
right ascension of ascending node: 332.4578°
argument of perigee: 142.3287°
revolutions per day: 14.26236040
mean anomaly at epoch: 217.9319°
orbit number at epoch: 2295

The dashed part of the orbit path shows where the satellite is in the earth's shadow,  

DLR